GW4247 Weather Reports


time (UTC)temp
C
wind
direction
speed
KPH
gust
KPH
rain 1hr
cm
rain 24hr
cm
rain mn
cm
humidity
%
barometer
mb
20260506214547 12 292 1.6 3.2 0.00 0.89 0.89 54 1003.0
20260506214044 12 291 3.2 4.8 0.00 0.89 0.89 54 1002.8
20260506213542 12 247 4.8 4.8 0.00 0.89 0.89 55 1002.8
20260506213040 13 250 0.0 1.6 0.00 0.89 0.89 54 1002.5
20260506212536 13 252 0.0 0.0 0.00 0.89 0.89 54 1002.6
20260506212030 13 296 3.2 4.8 0.00 0.89 0.89 53 1002.7
20260506211526 13 271 1.6 3.2 0.00 0.89 0.89 52 1002.6
20260506211024 13 255 3.2 3.2 0.00 0.89 0.89 55 1002.8
20260506210520 13 267 0.0 1.6 0.00 0.89 0.89 57 1002.5
20260506210017 13 278 4.8 6.4 0.00 0.89 0.89 54 1002.6
20260506205514 13 275 1.6 1.6 0.00 0.89 0.89 55 1002.5
20260506205009 13 275 1.6 3.2 0.00 0.89 0.89 56 1002.7
20260506204507 13 288 1.6 1.6 0.00 0.89 0.89 59 1002.5
20260506204004 13 280 3.2 4.8 0.00 0.89 0.89 55 1002.7
20260506203503 14 276 1.6 3.2 0.00 0.89 0.89 54 1002.5
20260506202958 14 235 1.6 1.6 0.00 0.89 0.89 52 1002.4
20260506202456 14 250 3.2 6.4 0.00 0.89 0.89 52 1002.3
20260506201952 15 13 1.6 3.2 0.00 0.89 0.89 56 1002.4
20260506201449 15 262 1.6 3.2 0.00 0.89 0.89 57 1002.3
20260506200946 14 202 1.6 1.6 0.00 0.89 0.89 56 1002.3
20260506200442 14 223 1.6 1.6 0.00 0.89 0.89 54 1002.2
20260506195938 14 254 1.6 1.6 0.00 0.89 0.89 58 1002.3
20260506195436 15 286 3.2 3.2 0.00 0.89 0.89 55 1002.3
20260506194932 15 185 6.4 9.7 0.00 0.89 0.89 54 1002.1
20260506194430 15 275 6.4 9.7 0.00 0.89 0.89 52 1002.2
20260506193926 15 310 0.0 1.6 0.00 0.89 0.89 52 1002.2
20260506193424 15 274 3.2 4.8 0.00 0.89 0.89 53 1002.1
20260506192920 16 252 9.7 12.9 0.00 0.89 0.89 49 1001.9
20260506192417 15 199 3.2 3.2 0.00 0.89 0.89 51 1001.9
20260506191914 16 143 1.6 3.2 0.00 0.89 0.89 54 1001.8
20260506191410 16 283 0.0 0.0 0.00 0.89 0.89 53 1002.2
20260506190908 15 283 3.2 4.8 0.00 0.89 0.89 54 1002.4
20260506190404 15 256 1.6 3.2 0.00 0.89 0.89 56 1002.2
20260506185901 15 130 4.8 4.8 0.00 0.89 0.89 52 1002.2
20260506185358 16 112 3.2 4.8 0.00 0.89 0.89 53 1002.1
20260506184855 15 295 0.0 0.0 0.00 0.89 0.89 55 1002.0
20260506184352 15 277 1.6 1.6 0.00 0.89 0.89 56 1002.4
20260506183849 14 263 3.2 3.2 0.00 0.89 0.89 55 1002.4
20260506183344 15 92 3.2 6.4 0.00 0.89 0.89 56 1002.3
20260506182842 14 272 1.6 1.6 0.00 0.89 0.89 58 1002.3
20260506182338 15 278 3.2 3.2 0.00 0.89 0.89 55 1002.2
20260506181836 14 219 3.2 4.8 0.00 0.89 0.89 57 1002.4
20260506181334 14 359 3.2 9.7 0.00 0.89 0.89 54 1002.3
20260506180831 15 263 3.2 3.2 0.00 0.89 0.89 54 1002.4
20260506180327 15 18 1.6 3.2 0.00 0.89 0.89 54 1002.2
20260506175823 15 173 3.2 4.8 0.00 0.89 0.89 55 1002.4
20260506175320 15 224 4.8 4.8 0.00 0.89 0.89 51 1002.4
20260506174818 14 166 3.2 3.2 0.00 0.89 0.89 57 1002.5
20260506174315 14 286 0.0 1.6 0.00 0.89 0.89 56 1002.5
20260506173812 15 241 9.7 12.9 0.00 0.89 0.89 53 1002.4
20260506173309 15 281 3.2 6.4 0.00 0.89 0.89 53 1002.6
20260506172806 14 261 0.0 0.0 0.00 0.89 0.89 59 1002.4
20260506172306 14 275 1.6 3.2 0.00 0.89 0.89 56 1002.7
20260506171800 14 108 1.6 1.6 0.00 0.89 0.89 61 1002.7
20260506171257 14 286 0.0 1.6 0.00 0.89 0.89 60 1002.4
20260506170755 14 311 3.2 4.8 0.00 0.89 0.89 56 1002.3
20260506170251 14 244 3.2 4.8 0.00 0.89 0.89 57 1002.4
20260506165749 14 276 0.0 1.6 0.00 0.89 0.89 54 1002.2
20260506165246 15 152 6.4 11.3 0.00 0.89 0.89 58 1002.3
20260506164743 13 35 1.6 1.6 0.00 0.89 0.89 57 1002.6
20260506164240 13 179 1.6 3.2 0.00 0.89 0.89 60 1002.8
20260506163737 13 3 1.6 3.2 0.00 0.89 0.89 65 1002.7
20260506163231 13 20 3.2 4.8 0.00 0.89 0.89 63 1002.7
20260506162728 13 243 3.2 3.2 0.00 0.89 0.89 60 1002.4
20260506162226 13 260 1.6 3.2 0.00 0.89 0.89 64 1002.4
20260506161723 13 52 0.0 1.6 0.00 0.89 0.89 65 1002.6
20260506161220 12 256 3.2 6.4 0.00 0.89 0.89 67 1002.5
20260506160718 13 276 0.0 0.0 0.00 0.89 0.89 66 1002.0
20260506160214 13 338 1.6 1.6 0.00 0.89 0.89 64 1002.3
20260506155713 13 276 1.6 1.6 0.00 0.89 0.89 66 1002.2
20260506155209 12 290 1.6 1.6 0.00 0.89 0.89 71 1002.2
20260506153311 12 253 4.8 6.4 0.00 0.89 0.89 69 1002.0
20260506152808 12 238 3.2 4.8 0.00 0.89 0.89 74 1002.0
20260506152306 12 276 0.0 1.6 0.00 0.89 0.89 73 1001.8
20260506151804 12 17 1.6 3.2 0.00 0.89 0.89 74 1001.9
20260506151300 11 257 1.6 1.6 0.00 0.89 0.89 73 1001.8
20260506150757 11 266 1.6 3.2 0.00 0.89 0.89 74 1001.8
20260506150303 11 139 4.8 4.8 0.00 0.89 0.89 74 1001.7
20260506145751 10 282 1.6 1.6 0.00 0.89 0.89 78 1001.6
20260506145247 11 212 3.2 6.4 0.00 0.89 0.89 77 1001.6
20260506144745 11 270 0.0 0.0 0.00 0.89 0.89 80 1001.7
20260506144242 10 249 3.2 3.2 0.00 0.89 0.89 79 1001.9
20260506143739 10 257 1.6 3.2 0.00 0.89 0.89 81 1001.6
20260506143237 10 250 1.6 3.2 0.00 0.89 0.89 80 1001.5
20260506142735 10 294 3.2 4.8 0.00 0.89 0.89 83 1001.4
20260506142233 10 187 3.2 3.2 0.00 0.89 0.89 82 1001.4
20260506141731 10 27 1.6 1.6 0.00 0.89 0.89 84 1001.2
20260506141229 10 335 1.6 1.6 0.00 0.89 0.89 89 1001.3
20260506140726 9 276 3.2 4.8 0.00 0.89 0.89 88 1001.1
20260506140223 9 205 1.6 3.2 0.00 0.89 0.89 89 1000.9
20260506135719 9 256 1.6 3.2 0.00 0.89 0.89 91 1000.8
20260506135216 9 283 1.6 1.6 0.00 0.89 0.89 90 1000.8
20260506134713 9 247 3.2 4.8 0.00 0.89 0.89 89 1000.8
20260506134209 10 261 1.6 1.6 0.00 0.89 0.89 90 1000.8
20260506133706 9 252 0.0 1.6 0.00 0.89 0.89 93 1000.8
20260506133202 9 326 0.0 0.0 0.00 0.89 0.89 93 1000.6
20260506132700 8 277 0.0 0.0 0.00 0.89 0.89 92 1000.7
20260506132157 8 254 0.0 1.6 0.00 0.89 0.89 93 1000.7
20260506131655 8 7 1.6 1.6 0.00 0.89 0.89 92 1000.6
20260506131150 8 72 1.6 1.6 0.00 0.89 0.89 95 1000.5
20260506130647 8 220 1.6 1.6 0.00 0.89 0.89 96 1000.6
20260506130145 8 274 0.0 0.0 0.00 0.89 0.89 97 1000.6
20260506125643 8 296 0.0 1.6 0.00 0.89 0.89 98 1000.7
20260506125140 8 277 1.6 1.6 0.00 0.89 0.89 98 1000.7
20260506124638 8 254 1.6 1.6 0.00 0.89 0.89 98 1000.4
20260506124136 8 292 0.0 1.6 0.00 0.89 0.89 98 999.8
20260506123633 8 301 0.0 1.6 0.00 0.89 0.89 99 999.6
20260506123132 8 212 0.0 0.0 0.00 0.89 0.89 99 999.4
20260506122628 8 295 0.0 0.0 0.00 0.89 0.89 99 999.7
20260506122126 8 277 0.0 1.6 0.00 0.89 0.89 99 999.4
20260506121623 8 242 1.6 3.2 0.00 0.89 0.89 99 999.7
20260506121119 7 245 1.6 1.6 0.00 0.89 0.89 99 999.8
20260506120618 7 275 0.0 1.6 0.00 0.89 0.89 99 999.7
20260506120115 7 274 3.2 3.2 0.00 0.89 0.89 99 999.6
20260506115613 7 277 0.0 0.0 0.00 0.89 0.89 99 999.4
20260506115111 7 276 0.0 0.0 0.00 0.89 0.89 99 999.6
20260506114608 7 328 1.6 1.6 0.00 0.89 0.89 99 999.5
20260506114106 7 268 0.0 0.0 0.00 0.89 0.89 99 999.7
20260506113604 7 269 0.0 0.0 0.00 0.89 0.89 99 999.2
20260506113101 7 265 0.0 0.0 0.00 0.89 0.89 99 999.0
20260506112557 7 282 1.6 1.6 0.00 0.89 0.89 99 998.8
20260506112055 7 296 0.0 0.0 0.00 0.89 0.89 99 998.8
20260506111552 7 86 1.6 6.4 0.00 0.89 0.89 99 998.6
20260506111049 7 257 1.6 1.6 0.00 0.89 0.89 99 998.4
20260506110547 7 22 1.6 3.2 0.00 0.89 0.89 99 998.0
20260506110044 7 294 0.0 1.6 0.18 0.89 0.89 99 998.0
20260506105540 7 270 0.0 1.6 0.18 0.89 0.89 99 998.8
20260506105038 7 250 0.0 1.6 0.00 0.86 0.86 99 998.7
20260506104536 7 271 0.0 1.6 0.18 0.86 0.86 99 998.7
20260506104033 7 218 1.6 1.6 0.18 0.86 0.86 99 998.7
20260506103530 7 254 0.0 1.6 0.00 0.84 0.84 99 998.4
20260506103027 7 269 3.2 4.8 0.00 0.84 0.84 99 998.2
20260506102525 7 187 1.6 3.2 0.00 0.84 0.84 99 998.0
20260506102022 7 304 0.0 1.6 0.00 0.84 0.84 99 998.0
20260506101519 7 64 1.6 1.6 0.00 0.84 0.84 99 998.1
20260506101016 7 281 1.6 3.2 0.00 0.84 0.84 99 997.7
20260506100514 7 307 0.0 0.0 0.00 0.84 0.84 99 997.3
20260506100012 7 235 1.6 3.2 0.00 0.84 0.84 99 996.9
20260506095511 7 331 0.0 0.0 0.00 0.84 0.84 99 997.0
20260506095006 7 177 1.6 3.2 0.00 0.84 0.84 99 997.0
20260506094505 7 28 3.2 3.2 0.00 0.84 0.84 99 997.3
20260506094002 7 267 1.6 1.6 0.00 0.84 0.84 99 997.4
20260506093500 7 290 1.6 4.8 0.00 0.84 0.84 99 997.4
20260506092957 7 23 3.2 4.8 0.00 0.84 0.84 99 997.3
20260506092455 7 239 4.8 4.8 0.00 0.84 0.84 99 997.6
20260506091951 7 270 0.0 0.0 0.00 0.84 0.84 99 997.6
20260506091450 7 11 1.6 1.6 0.00 0.84 0.84 99 997.3
20260506090947 8 332 4.8 4.8 0.13 0.84 0.84 99 997.3
20260506090445 8 104 1.6 3.2 0.30 0.84 0.84 99 997.1
20260506085940 8 105 1.6 1.6 0.18 0.81 0.81 99 997.2
20260506085438 8 143 1.6 1.6 0.13 0.79 0.79 99 997.5
20260506084934 8 278 0.0 0.0 0.30 0.79 0.79 99 997.7
20260506084431 8 265 3.2 3.2 0.30 0.76 0.76 99 997.6
20260506083927 8 244 3.2 3.2 0.48 0.76 0.76 99 997.5
20260506083424 8 308 3.2 4.8 0.30 0.71 0.71 99 997.2
20260506082922 8 17 1.6 1.6 0.30 0.69 0.69 99 997.4
20260506082419 8 351 4.8 9.7 0.48 0.66 0.66 99 997.0
20260506081914 8 257 0.0 1.6 0.43 0.64 0.64 99 997.1
20260506081413 8 305 0.0 1.6 0.13 0.58 0.58 99 997.0
20260506080910 8 256 1.6 1.6 0.00 0.56 0.56 99 996.9
20260506080406 8 15 3.2 3.2 0.00 0.56 0.56 99 997.3
20260506073350 8 341 1.6 3.2 0.00 0.53 0.53 99 996.5
20260506072847 8 224 3.2 4.8 0.18 0.53 0.53 99 996.5
20260506072345 8 267 0.0 0.0 0.18 0.53 0.53 99 996.6
20260506071843 9 275 1.6 3.2 0.13 0.51 0.51 99 996.6
20260506071341 9 277 1.6 1.6 0.13 0.51 0.51 99 996.5
20260506070837 9 287 0.0 1.6 0.18 0.48 0.48 99 996.5
20260506070334 9 277 0.0 1.6 0.48 0.48 0.48 99 996.6
20260506062311 10 276 0.0 0.0 0.18 0.28 0.28 99 996.6
20260506061807 10 245 1.6 1.6 0.36 0.28 0.28 99 996.5
20260506061304 10 281 0.0 1.6 0.30 0.25 0.25 99 996.6
20260506060802 10 280 0.0 0.0 0.13 0.23 0.23 99 996.6
20260506060300 10 304 0.0 0.0 0.18 0.20 0.20 99 996.7
20260506051231 11 273 0.0 1.6 0.00 0.03 0.03 99 997.1
20260506050730 11 262 1.6 1.6 0.00 0.03 0.03 99 997.2
20260506050227 11 307 0.0 0.0 0.13 0.03 0.03 99 997.3
20260506044717 11 276 0.0 0.0 0.00 0.00 0.00 99 997.3
20260506044215 11 281 0.0 1.6 0.00 0.00 0.00 99 997.2
20260506043712 11 296 1.6 1.6 0.00 0.00 0.00 99 997.3
20260506043210 11 227 1.6 1.6 0.00 0.00 0.00 99 997.3
20260506042708 11 277 0.0 1.6 0.00 0.00 0.00 99 997.4
20260506042206 11 275 3.2 3.2 0.00 0.00 0.00 99 997.4
20260506041704 12 228 6.4 6.4 0.00 0.00 0.00 99 997.5
20260506041201 13 53 0.0 1.6 0.00 0.00 0.00 99 997.3
20260506040658 14 274 4.8 4.8 0.00 0.00 0.00 99 997.3
20260506040155 14 283 3.2 3.2 0.18 0.00 0.00 99 997.3
20260506035652 14 279 4.8 4.8 0.30 1.40 1.40 99 997.5
20260506035149 14 267 3.2 3.2 0.30 1.37 1.37 99 997.5
20260506034645 14 289 3.2 3.2 0.36 1.35 1.35 99 997.7
20260506034143 14 278 6.4 9.7 0.30 1.32 1.32 99 997.8
20260506033640 14 329 6.4 9.7 0.43 1.30 1.30 99 997.9
20260506033137 14 284 3.2 3.2 0.61 1.27 1.27 99 997.8
20260506032634 14 280 6.4 11.3 0.48 1.22 1.22 99 998.1
20260506032131 14 280 3.2 3.2 0.61 1.19 1.19 99 998.1
20260506031628 14 289 1.6 3.2 0.71 1.14 1.14 99 998.1
20260506031125 14 283 3.2 3.2 0.66 1.07 1.07 99 998.2
20260506030623 14 302 1.6 3.2 0.48 1.02 1.02 99 998.3
20260506030120 14 278 4.8 4.8 0.30 0.97 0.97 99 998.1
20260506025617 14 246 6.4 11.3 0.30 0.94 0.94 99 998.2
20260506025113 14 292 1.6 3.2 0.13 0.91 0.91 99 998.0
20260506024611 14 296 1.6 1.6 0.43 0.91 0.91 99 998.1
20260506024107 14 266 4.8 4.8 0.48 0.89 0.89 99 998.3
20260506023603 14 290 3.2 3.2 0.48 0.84 0.84 99 998.3
20260506023100 14 281 1.6 3.2 0.43 0.81 0.81 99 998.3
20260506022558 14 240 3.2 3.2 0.30 0.76 0.76 99 998.4
20260506022055 15 286 1.6 3.2 0.48 0.74 0.74 99 998.3
20260506021553 15 282 1.6 3.2 0.48 0.71 0.71 99 998.3
20260506021049 15 280 3.2 4.8 0.48 0.69 0.69 99 998.5
20260506020547 15 278 1.6 1.6 0.43 0.64 0.64 99 998.4
20260506020044 15 280 1.6 3.2 0.30 0.58 0.58 99 998.4
20260506015542 15 272 1.6 1.6 0.30 0.56 0.56 99 998.3
20260506015039 15 273 3.2 4.8 0.43 0.53 0.53 99 998.3
20260506014536 15 282 1.6 3.2 0.48 0.51 0.51 99 998.2
20260506014031 15 282 1.6 1.6 0.18 0.46 0.46 99 998.3
20260506013530 15 283 1.6 1.6 0.30 0.46 0.46 99 997.9
20260506013026 15 282 1.6 1.6 0.13 0.43 0.43 99 998.0
20260506012522 15 283 3.2 3.2 0.00 0.41 0.41 99 998.0
20260506012020 15 279 0.0 1.6 0.00 0.41 0.41 99 997.8
20260506011517 15 284 0.0 1.6 0.18 0.41 0.41 99 997.8
20260506011013 15 287 3.2 3.2 0.18 0.41 0.41 99 997.9
20260506010513 15 281 0.0 1.6 0.00 0.38 0.38 99 997.9
20260506010009 15 270 1.6 1.6 0.00 0.38 0.38 99 997.9
20260506005506 15 285 3.2 3.2 0.18 0.38 0.38 99 998.1
20260506005002 15 282 3.2 3.2 0.30 0.38 0.38 99 998.0
20260506004459 15 282 0.0 1.6 0.13 0.36 0.36 99 998.1
20260506003955 15 280 0.0 1.6 0.00 0.33 0.33 99 998.1
20260506003452 15 282 0.0 0.0 0.00 0.33 0.33 99 998.1
20260506002948 15 260 1.6 1.6 0.00 0.33 0.33 99 998.2
20260506002444 15 304 3.2 3.2 0.18 0.33 0.33 99 998.0
20260506001940 15 280 3.2 4.8 0.18 0.33 0.33 99 998.1
20260506001437 15 294 3.2 3.2 0.00 0.30 0.30 99 998.1
20260506000934 15 279 1.6 1.6 0.00 0.30 0.30 99 998.2
20260506000432 15 289 1.6 1.6 0.00 0.30 0.30 99 998.1
20260505235929 15 284 1.6 1.6 0.00 0.30 0.30 99 998.2
20260505235427 15 279 1.6 1.6 0.00 0.30 0.30 99 998.0
20260505234923 15 275 1.6 1.6 0.00 0.30 0.30 99 998.1
20260505234421 15 291 3.2 3.2 0.00 0.30 0.30 99 998.1
20260505233917 15 282 0.0 1.6 0.00 0.30 0.30 99 998.2
20260505233415 15 287 0.0 1.6 0.00 0.30 0.30 99 998.1
20260505232913 15 287 1.6 1.6 0.00 0.30 0.30 99 998.1
20260505232411 15 279 1.6 1.6 0.00 0.30 0.30 99 998.3
20260505231907 15 299 3.2 3.2 0.00 0.30 0.30 99 998.2
20260505231404 15 289 3.2 3.2 0.00 0.30 0.30 99 998.5
20260505230902 15 277 1.6 1.6 0.00 0.30 0.30 99 998.4
20260505230400 15 279 1.6 1.6 0.00 0.30 0.30 99 998.5
20260505225856 15 283 3.2 4.8 0.13 0.30 0.30 99 998.4
20260505225353 15 267 3.2 4.8 0.13 0.30 0.30 99 998.7
20260505224848 15 277 3.2 3.2 0.18 0.28 0.28 99 998.6
20260505224346 15 258 1.6 1.6 0.18 0.28 0.28 98 998.5
20260505223843 15 252 3.2 3.2 0.30 0.28 0.28 98 998.4
20260505223340 15 222 6.4 9.7 0.43 0.25 0.25 98 998.7
20260505222836 15 282 3.2 3.2 0.30 0.23 0.23 98 998.6
20260505222332 15 314 4.8 6.4 0.13 0.20 0.20 98 998.6
20260505221829 15 300 6.4 6.4 0.18 0.18 0.18 97 998.5
20260505221326 15 287 1.6 1.6 0.18 0.18 0.18 97 998.5
20260505220823 15 278 8.0 11.3 0.30 0.15 0.15 96 998.6
20260505220320 15 284 6.4 9.7 0.79 0.15 0.15 95 998.5
20260505215818 15 225 9.7 17.7 0.61 0.10 0.10 92 998.5
20260505215316 18 285 9.7 12.9 0.13 0.03 0.03 80 998.5